Wiscasset, ME

7:28 PM EDT on August 27, 2016 (GMT -0400)
Wiscasset

Weather History for KIWI - June, 2014

Change the Weather History Date:

Tuesday, June 3, 2014

  Actual Average Record
Temperature  
Mean Temperature 58 °F -  
Max Temperature 69 °F 65 °F 82 °F (1999)
Min Temperature 46 °F 43 °F 39 °F (1997)
Degree Days  
Heating Degree Days 8    
Growing Degree Days 8 (Base 50)    
Moisture  
Dew Point 48 °F    
Average Humidity 70    
Maximum Humidity 89    
Minimum Humidity 45    
Precipitation  
Precipitation 0.00 in - - ()
Sea Level Pressure  
Sea Level Pressure 30.03 in    
Wind  
Wind Speed 3 mph (SSE)    
Max Wind Speed 10 mph    
Max Gust Speed 17 mph    
Visibility 10 miles    
Events      
Averages and records for this station are not official NWS values.
T = Trace of Precipitation, MM = Missing Value Source: NWS Daily Summary

Daily Weather History Graph

Daily Weather History Graph

Search for Another Location

Airport or City:

Trip Planner

Search our weather history database for the weather conditions in past years. The results will help you decide how hot, cold, wet, or windy it might be!

Date:

Astronomy

Jun. 03, 2014 Rise Set
Actual Time 4:58 AM EDT 8:16 PM EDT
Civil Twilight 4:22 AM EDT 8:51 PM EDT
Nautical Twilight 3:36 AM EDT 9:38 PM EDT
Astronomical Twilight 2:39 AM EDT 10:35 PM EDT
Moon 10:25 AM EDT (6/3) No Moon Set
Length of Visible Light 16h 29m
Length of Day
15h 18m
Waxing Crescent, 30% of the Moon is Illuminated
Jun 3
Waxing Crescent
Jun 5
First Quarter
Jun 13
Full
Jun 19
Last Quarter
Jun 27
New

Hourly Weather History & Observations

Time (EDT) Temp. Dew Point Humidity Pressure Visibility Wind Dir Wind Speed Gust Speed Precip Events Conditions
12:53 AM 53.1 °F 50.0 °F 89% 30.04 in 10.0 mi Calm Calm - N/A   Clear
1:53 AM 54.0 °F 50.0 °F 86% 30.04 in 10.0 mi Calm Calm - N/A   Clear
2:53 AM 54.0 °F 50.0 °F 86% 30.03 in 10.0 mi Calm Calm - N/A   Clear
3:53 AM 54.0 °F 50.0 °F 86% 30.02 in 10.0 mi Calm Calm - N/A   Clear
4:53 AM 51.1 °F 48.0 °F 89% 30.02 in 10.0 mi Calm Calm - N/A   Clear
5:53 AM 52.0 °F 48.9 °F 89% 30.03 in 10.0 mi East 3.5 mph - N/A   Clear
6:53 AM 55.9 °F 50.0 °F 80% 30.04 in 10.0 mi East 5.8 mph - N/A   Clear
7:53 AM 60.1 °F 52.0 °F 75% 30.05 in 10.0 mi Variable 3.5 mph - N/A   Clear
8:53 AM 64.0 °F 53.1 °F 67% 30.06 in 10.0 mi SE 6.9 mph - N/A   Clear
9:53 AM 64.9 °F 53.1 °F 65% 30.06 in 10.0 mi SSW 5.8 mph - N/A   Clear
10:53 AM 68.0 °F 53.1 °F 59% 30.07 in 10.0 mi North - - N/A   Clear
11:53 AM 68.0 °F 51.1 °F 55% 30.07 in 10.0 mi Variable 6.9 mph - N/A   Clear
12:53 PM 69.1 °F 50.0 °F 51% 30.07 in 10.0 mi South 10.4 mph 17.3 mph N/A   Clear
1:53 PM 66.9 °F 48.9 °F 52% 30.06 in 10.0 mi South 8.1 mph - N/A   Clear
2:53 PM 66.9 °F 48.9 °F 52% 30.04 in 10.0 mi Variable 6.9 mph - N/A   Clear
3:53 PM 64.9 °F 48.9 °F 56% 30.02 in 10.0 mi South 10.4 mph - N/A   Clear
4:53 PM 64.9 °F 45.0 °F 48% 30.02 in 10.0 mi SSW 9.2 mph - N/A   Clear
5:53 PM 63.0 °F 41.0 °F 45% 30.01 in 10.0 mi South 6.9 mph - N/A   Clear
6:53 PM 61.0 °F 41.0 °F 48% 30.02 in 10.0 mi Variable 3.5 mph - N/A   Clear
7:53 PM 59.0 °F 43.0 °F 55% 30.01 in 10.0 mi Calm Calm - N/A   Clear
8:53 PM 51.1 °F 45.0 °F 80% 30.01 in 10.0 mi Calm Calm - N/A   Clear
9:53 PM 48.0 °F 44.1 °F 86% 30.03 in 10.0 mi Calm Calm - N/A   Clear
10:53 PM 46.9 °F 43.0 °F 86% 29.99 in 10.0 mi ENE 3.5 mph - N/A   Clear
11:53 PM 46.0 °F 43.0 °F 89% 29.99 in 10.0 mi Calm Calm - N/A   Clear